START_TIME,STEP,MOV.,H8,t_acc.,H43,t_acc.,M25,t_acc.,H9,t_acc.
1979-07-29 12:00:28.610 ,0,0,0.,12.0,0.,12.0,0.,12.0,0.,12.0
1979-07-29 12:00:40.610 ,0,0,0.,12.0,0.,12.0,0.,12.0,0.,12.0
1979-07-29 12:00:52.610 ,1,0,0.,12.0,0.,12.0,0.,12.0,0.,12.0
1979-07-29 12:01:04.610 ,1,0,0.,12.0,0.,12.0,0.,12.0,0.,12.0
1979-07-29 12:01:16.610 ,1,0,0.,12.0,0.,12.0,0.,12.0,0.,12.0
1979-07-29 12:01:28.610 ,1,0,0.,12.0,0.,12.0,0.,12.0,0.,12.0
1979-07-29 12:01:40.610 ,2,0,0.,12.0,0.,12.0,0.,12.0,0.,12.0
1979-07-29 12:01:52.610 ,2,0,0.,12.0,0.,12.0,0.,12.0,0.,12.0
1979-07-29 12:02:04.610 ,2,0,0.,12.0,0.,12.0,0.,12.0,0.,12.0
1979-07-29 12:02:16.610 ,2,0,0.,12.0,0.,12.0,0.,12.0,0.,12.0
1979-07-29 12:02:28.610 ,3,0,0.,12.0,0.,12.0,0.,12.0,0.,12.0
1979-07-29 12:02:40.610 ,3,0,0.,12.0,0.,12.0,0.,12.0,0.,12.0
1979-07-29 12:02:52.610 ,3,0,0.,12.0,0.,12.0,0.,12.0,0.,12.0
1979-07-29 12:03:04.610 ,3,0,0.,12.0,0.,12.0,0.,12.0,0.,12.0
1979-07-29 12:03:16.610 ,4,0,0.,12.0,0.,12.0,0.,12.0,0.,12.0
1979-07-29 12:03:28.610 ,4,0,0.,12.0,0.,12.0,0.,12.0,0.,12.0
1979-07-29 12:03:40.610 ,4,0,0.,12.0,0.,12.0,0.,12.0,0.,12.0
1979-07-29 12:03:52.610 ,4,0,0.,12.0,0.,12.0,0.,12.0,0.,12.0
1979-07-29 12:04:04.610 ,5,0,0.,12.0,0.,12.0,0.,12.0,0.,12.0
1979-07-29 12:04:16.610 ,5,0,0.,12.0,0.,12.0,0.,12.0,0.,12.0
1979-07-29 12:04:28.610 ,5,0,0.,12.0,0.,12.0,0.,12.0,0.,12.0
1979-07-29 12:04:40.610 ,5,0,0.,12.0,0.,12.0,0.,12.0,0.,12.0
1979-07-29 12:04:52.610 ,6,0,0.,12.0,0.,12.0,0.,12.0,0.,12.0
1979-07-29 12:05:04.610 ,6,0,0.,12.0,0.,12.0,0.,12.0,0.,12.0
1979-07-29 12:05:40.610 ,7,0,0.,12.0,0.,12.0,0.,12.0,0.,12.0
1979-07-29 12:05:52.610 ,7,0,0.,12.0,0.,12.0,0.,12.0,0.,12.0
1979-07-29 12:06:04.610 ,7,0,0.,12.0,0.,12.0,0.,12.0,0.,12.0
1979-07-29 12:06:16.610 ,7,0,0.,12.0,0.,12.0,0.,12.0,0.,12.0
1979-07-29 12:06:28.610 ,7,0,0.,12.0,0.,12.0,0.,12.0,0.,12.0
1979-07-29 12:06:40.610 ,7,0,0.,12.0,0.,12.0,0.,12.0,0.,12.0
1979-07-29 12:06:52.610 ,7,0,0.,12.0,0.,12.0,0.,12.0,0.,12.0
1979-07-29 12:07:04.610 ,7,0,0.,12.0,0.,12.0,0.,12.0,0.,12.0
1979-07-29 12:07:16.610 ,6,0,0.,12.0,0.,12.0,0.,12.0,0.,12.0
1979-07-29 12:07:28.610 ,6,0,0.,12.0,0.,12.0,0.,12.0,0.,12.0
1979-07-29 12:07:40.610 ,6,0,0.,12.0,0.,12.0,0.,12.0,0.,12.0
1979-07-29 12:07:52.610 ,6,0,0.,12.0,0.,12.0,0.,12.0,0.,12.0
1979-07-29 12:08:04.610 ,5,0,0.,12.0,0.,12.0,0.,12.0,0.,12.0
1979-07-29 12:08:16.610 ,5,0,0.,12.0,0.,12.0,0.,12.0,0.,12.0
1979-07-29 12:08:28.610 ,5,0,0.,12.0,0.,12.0,0.,12.0,0.,12.0
1979-07-29 12:08:40.610 ,5,0,0.,12.0,0.,12.0,0.,12.0,0.,12.0
1979-07-29 12:08:52.610 ,4,0,0.,12.0,0.,12.0,0.,12.0,0.,12.0
1979-07-29 12:09:04.610 ,4,0,0.,12.0,0.,12.0,0.,12.0,0.,12.0
1979-07-29 12:09:16.610 ,4,0,0.,12.0,0.,12.0,0.,12.0,0.,12.0
1979-07-29 12:09:28.610 ,4,0,0.,12.0,0.,12.0,0.,12.0,0.,12.0
1979-07-29 12:09:40.610 ,3,0,0.,12.0,0.,12.0,0.,12.0,0.,12.0
1979-07-29 12:09:52.610 ,3,0,0.,12.0,0.,12.0,0.,12.0,0.,12.0
1979-07-29 12:10:04.610 ,3,0,0.,12.0,0.,12.0,0.,12.0,0.,12.0
1979-07-29 12:10:16.610 ,3,0,0.,12.0,0.,12.0,0.,12.0,0.,12.0
1979-07-29 12:10:28.610 ,2,0,0.,12.0,0.,12.0,0.,12.0,0.,12.0
1979-07-29 12:10:40.610 ,2,0,0.,12.0,0.,12.0,0.,12.0,0.,12.0
1979-07-29 12:10:52.610 ,2,0,0.,12.0,0.,12.0,0.,12.0,0.,12.0
1979-07-29 12:11:04.610 ,2,0,0.,12.0,0.,12.0,0.,12.0,0.,12.0
1979-07-29 12:11:16.610 ,1,0,0.,12.0,0.,12.0,0.,12.0,0.,12.0
1979-07-29 12:11:28.610 ,1,0,0.,12.0,1.,12.0,0.,12.0,0.,12.0
1979-07-29 12:11:40.610 ,1,0,0.,12.0,0.,12.0,0.,12.0,0.,12.0
1979-07-29 12:11:52.610 ,1,0,0.,12.0,0.,12.0,0.,12.0,0.,12.0
1979-07-29 12:12:04.610 ,0,0,0.,12.0,0.,12.0,0.,12.0,0.,12.0
1979-07-29 12:12:16.610 ,0,0,0.,12.0,0.,12.0,0.,12.0,0.,12.0
1979-07-29 12:12:28.610 ,0,0,0.,12.0,0.,12.0,0.,12.0,0.,12.0
1979-07-29 12:12:40.610 ,0,0,0.,12.0,0.,12.0,0.,12.0,0.,12.0
1979-07-29 12:12:52.610 ,0,0,0.,12.0,0.,12.0,0.,12.0,0.,12.0
1979-07-29 12:13:04.610 ,0,0,0.,12.0,0.,12.0,0.,12.0,0.,12.0
1979-07-29 12:13:16.610 ,0,0,0.,12.0,0.,12.0,0.,12.0,0.,12.0
1979-07-29 12:13:28.610 ,0,0,0.,12.0,0.,12.0,0.,12.0,0.,12.0
1979-07-29 12:13:40.610 ,1,0,0.,12.0,0.,12.0,0.,12.0,0.,12.0
1979-07-29 12:13:52.610 ,1,0,0.,12.0,0.,12.0,0.,12.0,0.,12.0
1979-07-29 12:14:04.610 ,1,0,0.,12.0,0.,12.0,0.,12.0,0.,12.0
1979-07-29 12:14:16.610 ,1,0,0.,12.0,0.,12.0,0.,12.0,0.,12.0
1979-07-29 12:14:28.610 ,2,0,0.,12.0,0.,12.0,0.,12.0,0.,12.0
1979-07-29 12:14:40.610 ,2,0,0.,12.0,0.,12.0,0.,12.0,0.,12.0
1979-07-29 12:14:52.610 ,2,0,0.,12.0,0.,12.0,0.,12.0,0.,12.0
1979-07-29 12:15:04.610 ,2,0,0.,12.0,0.,12.0,0.,12.0,0.,12.0
1979-07-29 12:15:16.610 ,3,0,0.,12.0,0.,12.0,0.,12.0,0.,12.0
1979-07-29 12:15:28.610 ,3,0,0.,12.0,0.,12.0,0.,12.0,0.,12.0
1979-07-29 12:15:40.610 ,0,0,0.,12.0,0.,12.0,0.,12.0,0.,12.0
1979-07-29 12:15:52.610 ,0,0,0.,12.0,0.,12.0,0.,12.0,0.,12.0
1979-07-29 12:16:04.610 ,4,0,0.,12.0,0.,12.0,0.,12.0,0.,12.0
1979-07-29 12:16:16.610 ,4,0,0.,12.0,0.,12.0,0.,12.0,0.,12.0
1979-07-29 12:16:28.610 ,4,0,0.,12.0,0.,12.0,0.,12.0,0.,12.0
1979-07-29 12:16:40.610 ,4,0,0.,12.0,0.,12.0,0.,12.0,0.,12.0
1979-07-29 12:16:52.610 ,5,0,0.,12.0,0.,12.0,0.,12.0,0.,12.0
1979-07-29 12:17:04.610 ,5,0,0.,12.0,0.,12.0,0.,12.0,0.,12.0
1979-07-29 12:17:16.610 ,5,0,0.,12.0,0.,12.0,0.,12.0,0.,12.0
1979-07-29 12:17:28.610 ,5,0,0.,12.0,0.,12.0,0.,12.0,0.,12.0
1979-07-29 12:17:40.610 ,6,0,0.,12.0,0.,12.0,0.,12.0,0.,12.0
1979-07-29 12:17:52.610 ,6,0,0.,12.0,0.,12.0,0.,12.0,0.,12.0
1979-07-29 12:18:04.610 ,6,0,0.,12.0,0.,12.0,0.,12.0,0.,12.0
1979-07-29 12:18:16.610 ,6,0,0.,12.0,0.,12.0,0.,12.0,0.,12.0
1979-07-29 12:18:28.610 ,7,0,0.,12.0,0.,12.0,0.,12.0,0.,12.0
1979-07-29 12:18:40.610 ,7,0,0.,12.0,0.,12.0,0.,12.0,0.,12.0
1979-07-29 12:18:52.610 ,7,0,0.,12.0,0.,12.0,0.,12.0,0.,12.0
1979-07-29 12:19:04.610 ,7,0,0.,12.0,0.,12.0,0.,12.0,0.,12.0
1979-07-29 12:19:16.610 ,3,1,0.,12.0,0.,12.0,0.,12.0,0.,12.0
1979-07-29 12:19:28.610 ,3,1,0.,12.0,0.,12.0,0.,12.0,0.,12.0
1979-07-29 12:19:40.610 ,0,1,0.,12.0,0.,12.0,0.,12.0,0.,12.0
1979-07-29 12:19:52.610 ,0,1,0.,12.0,0.,12.0,0.,12.0,0.,12.0
1979-07-29 12:20:04.610 ,4,1,0.,12.0,0.,12.0,0.,12.0,0.,12.0
1979-07-29 12:20:16.610 ,4,1,0.,12.0,0.,12.0,0.,12.0,0.,12.0
1979-07-29 12:20:28.610 ,7,1,0.,12.0,0.,12.0,0.,12.0,0.,12.0
1979-07-29 12:20:40.610 ,7,1,0.,12.0,0.,12.0,0.,12.0,0.,12.0
1979-07-29 12:20:52.610 ,3,1,0.,12.0,0.,12.0,0.,12.0,0.,12.0
1979-07-29 12:21:04.610 ,3,1,0.,12.0,0.,12.0,0.,12.0,0.,12.0
1979-07-29 12:21:16.610 ,0,1,0.,12.0,0.,12.0,0.,12.0,0.,12.0
1979-07-29 12:21:28.610 ,0,1,0.,12.0,0.,12.0,0.,12.0,0.,12.0
1979-07-29 12:21:40.610 ,4,1,0.,12.0,0.,12.0,0.,12.0,0.,12.0
1979-07-29 12:21:52.610 ,4,1,0.,12.0,0.,12.0,0.,12.0,0.,12.0
1979-07-29 12:22:04.610 ,7,1,0.,12.0,0.,12.0,0.,12.0,0.,12.0
1979-07-29 12:22:16.610 ,7,1,0.,12.0,0.,12.0,0.,12.0,0.,12.0
1979-07-29 12:22:28.610 ,3,1,0.,12.0,0.,12.0,0.,12.0,0.,12.0
1979-07-29 12:22:40.610 ,3,1,0.,12.0,0.,12.0,0.,12.0,0.,12.0
1979-07-29 12:22:52.610 ,0,1,0.,12.0,0.,12.0,0.,12.0,0.,12.0
1979-07-29 12:23:04.610 ,0,1,0.,12.0,0.,12.0,0.,12.0,0.,12.0
1979-07-29 12:23:16.610 ,4,1,0.,12.0,0.,12.0,0.,12.0,0.,12.0
1979-07-29 12:23:28.610 ,4,1,0.,12.0,0.,12.0,0.,12.0,0.,12.0
1979-07-29 12:23:40.610 ,7,1,0.,12.0,0.,12.0,0.,12.0,0.,12.0
1979-07-29 12:23:52.610 ,7,1,0.,12.0,0.,12.0,0.,12.0,0.,12.0
1979-07-29 12:24:28.610 ,0,1,0.,12.0,0.,12.0,0.,12.0,0.,12.0
1979-07-29 12:24:40.610 ,0,1,0.,12.0,0.,12.0,0.,12.0,0.,12.0
1979-07-29 12:24:52.610 ,4,1,0.,12.0,0.,12.0,0.,12.0,0.,12.0
1979-07-29 12:25:04.610 ,4,1,0.,12.0,0.,12.0,0.,12.0,0.,12.0
1979-07-29 12:25:16.610 ,7,1,0.,12.0,0.,12.0,0.,12.0,0.,12.0
1979-07-29 12:25:28.610 ,7,1,0.,12.0,0.,12.0,0.,12.0,0.,12.0
1979-07-29 12:25:40.610 ,3,1,0.,12.0,0.,12.0,0.,12.0,0.,12.0
1979-07-29 12:25:52.610 ,3,1,0.,12.0,0.,12.0,0.,12.0,0.,12.0
1979-07-29 12:26:04.610 ,0,1,0.,12.0,0.,12.0,0.,12.0,0.,12.0
1979-07-29 12:26:16.610 ,0,1,0.,12.0,0.,12.0,0.,12.0,0.,12.0
1979-07-29 12:26:28.610 ,4,1,0.,12.0,0.,12.0,0.,12.0,0.,12.0
1979-07-29 12:26:40.610 ,4,1,0.,12.0,0.,12.0,0.,12.0,0.,12.0
1979-07-29 12:26:52.610 ,7,1,0.,12.0,0.,12.0,0.,12.0,0.,12.0
1979-07-29 12:27:04.610 ,7,1,0.,12.0,0.,12.0,0.,12.0,0.,12.0
1979-07-29 12:27:16.610 ,3,1,0.,12.0,0.,12.0,0.,12.0,0.,12.0
1979-07-29 12:27:28.610 ,3,1,0.,12.0,0.,12.0,0.,12.0,0.,12.0
1979-07-29 12:27:40.610 ,0,1,0.,12.0,0.,12.0,0.,12.0,0.,12.0
1979-07-29 12:27:52.610 ,0,1,0.,12.0,0.,12.0,0.,12.0,0.,12.0
1979-07-29 12:28:04.610 ,4,1,0.,12.0,0.,12.0,0.,12.0,0.,12.0
1979-07-29 12:28:16.610 ,4,1,0.,12.0,0.,12.0,0.,12.0,0.,12.0
1979-07-29 12:28:28.610 ,7,1,0.,12.0,0.,12.0,0.,12.0,0.,12.0
1979-07-29 12:28:40.610 ,7,1,0.,12.0,0.,12.0,0.,12.0,0.,12.0
1979-07-29 12:28:52.610 ,3,1,0.,12.0,0.,12.0,0.,12.0,0.,12.0
1979-07-29 12:29:04.610 ,3,1,0.,12.0,0.,12.0,0.,12.0,0.,12.0
1979-07-29 12:29:16.610 ,0,1,0.,12.0,0.,12.0,0.,12.0,0.,12.0
1979-07-29 12:29:28.610 ,0,1,0.,12.0,0.,12.0,0.,12.0,0.,12.0
1979-07-29 12:29:40.610 ,0,0,0.,12.0,0.,12.0,0.,12.0,0.,12.0
1979-07-29 12:29:52.610 ,0,0,0.,12.0,0.,12.0,0.,12.0,0.,12.0
1979-07-29 12:30:04.610 ,0,0,0.,12.0,0.,12.0,0.,12.0,0.,12.0
1979-07-29 12:30:16.610 ,0,0,0.,12.0,0.,12.0,0.,12.0,0.,12.0
1979-07-29 12:30:28.610 ,5,0,0.,12.0,0.,12.0,0.,12.0,0.,12.0
1979-07-29 12:30:40.610 ,5,0,0.,12.0,0.,12.0,0.,12.0,0.,12.0
1979-07-29 12:30:52.610 ,5,0,0.,12.0,0.,12.0,0.,12.0,0.,12.0
1979-07-29 12:31:04.610 ,5,0,0.,12.0,0.,12.0,0.,12.0,0.,12.0
1979-07-29 12:31:16.610 ,4,0,0.,12.0,0.,12.0,0.,12.0,0.,12.0
1979-07-29 12:31:28.610 ,4,0,0.,12.0,0.,12.0,0.,12.0,0.,12.0
1979-07-29 12:31:40.610 ,4,0,0.,12.0,0.,12.0,0.,12.0,0.,12.0
1979-07-29 12:31:52.610 ,4,0,0.,12.0,0.,12.0,0.,12.0,0.,12.0
1979-07-29 12:32:04.610 ,3,0,0.,12.0,0.,12.0,0.,12.0,0.,12.0
1979-07-29 12:32:16.610 ,3,0,0.,12.0,0.,12.0,0.,12.0,0.,12.0
1979-07-29 12:32:28.610 ,3,0,0.,12.0,0.,12.0,0.,12.0,0.,12.0
1979-07-29 12:32:40.610 ,3,0,0.,12.0,0.,12.0,0.,12.0,0.,12.0
1979-07-29 12:32:52.610 ,2,0,0.,12.0,0.,12.0,0.,12.0,0.,12.0
1979-07-29 12:33:04.610 ,2,0,0.,12.0,0.,12.0,0.,12.0,0.,12.0
1979-07-29 12:33:16.610 ,2,0,0.,12.0,0.,12.0,0.,12.0,0.,12.0
1979-07-29 12:33:28.610 ,2,0,0.,12.0,0.,12.0,0.,12.0,0.,12.0
1979-07-29 12:33:40.610 ,1,0,0.,12.0,0.,12.0,0.,12.0,0.,12.0
1979-07-29 12:33:52.610 ,1,0,0.,12.0,0.,12.0,0.,12.0,0.,12.0
1979-07-29 12:34:04.610 ,1,0,0.,12.0,0.,12.0,0.,12.0,0.,12.0
1979-07-29 12:34:16.610 ,1,0,0.,12.0,0.,12.0,0.,12.0,0.,12.0
1979-07-29 12:34:28.610 ,0,0,0.,12.0,0.,12.0,0.,12.0,0.,12.0
1979-07-29 12:34:40.610 ,0,0,0.,12.0,0.,12.0,0.,12.0,0.,12.0
1979-07-29 12:34:52.610 ,0,0,0.,12.0,0.,12.0,0.,12.0,0.,12.0
1979-07-29 12:35:04.610 ,0,0,0.,12.0,0.,12.0,0.,12.0,0.,12.0
1979-07-29 12:35:16.610 ,0,0,0.,12.0,0.,12.0,0.,12.0,0.,12.0
1979-07-29 12:35:28.610 ,0,0,0.,12.0,0.,12.0,0.,12.0,0.,12.0
1979-07-29 12:35:40.610 ,0,0,0.,12.0,0.,12.0,0.,12.0,0.,12.0
1979-07-29 12:35:52.610 ,0,0,0.,12.0,0.,12.0,0.,12.0,0.,12.0
1979-07-29 12:36:04.610 ,1,0,0.,12.0,0.,12.0,0.,12.0,0.,12.0
1979-07-29 12:36:16.610 ,1,0,0.,12.0,0.,12.0,0.,12.0,0.,12.0
1979-07-29 12:36:28.610 ,1,0,0.,12.0,0.,12.0,0.,12.0,0.,12.0
1979-07-29 12:36:40.610 ,1,0,0.,12.0,0.,12.0,0.,12.0,0.,12.0
1979-07-29 12:36:52.610 ,2,0,0.,12.0,0.,12.0,0.,12.0,0.,12.0
1979-07-29 12:37:04.610 ,2,0,0.,12.0,0.,12.0,0.,12.0,0.,12.0
1979-07-29 12:37:16.610 ,2,0,0.,12.0,0.,12.0,0.,12.0,0.,12.0
1979-07-29 12:37:28.610 ,2,0,0.,12.0,0.,12.0,0.,12.0,0.,12.0
1979-07-29 12:37:40.610 ,3,0,0.,12.0,0.,12.0,0.,12.0,0.,12.0
1979-07-29 12:37:52.610 ,3,0,0.,12.0,0.,12.0,0.,12.0,0.,12.0
1979-07-29 12:38:04.610 ,3,0,0.,12.0,0.,12.0,0.,12.0,0.,12.0
1979-07-29 12:38:16.610 ,3,0,0.,12.0,0.,12.0,0.,12.0,0.,12.0
1979-07-29 12:38:28.610 ,4,0,0.,12.0,0.,12.0,0.,12.0,0.,12.0
1979-07-29 12:38:40.610 ,4,0,0.,12.0,0.,12.0,0.,12.0,0.,12.0
1979-07-29 12:38:52.610 ,4,0,0.,12.0,0.,12.0,0.,12.0,0.,12.0
1979-07-29 12:39:04.610 ,4,0,0.,12.0,0.,12.0,0.,12.0,0.,12.0
1979-07-29 12:39:16.610 ,5,0,0.,12.0,0.,12.0,0.,12.0,0.,12.0
1979-07-29 12:39:28.610 ,5,0,0.,12.0,0.,12.0,0.,12.0,0.,12.0
1979-07-29 12:39:40.610 ,5,0,0.,12.0,0.,12.0,0.,12.0,0.,12.0
1979-07-29 12:39:52.610 ,5,0,0.,12.0,0.,12.0,0.,12.0,0.,12.0
1979-07-29 12:40:04.610 ,6,0,0.,12.0,0.,12.0,0.,12.0,0.,12.0
1979-07-29 12:40:16.610 ,6,0,0.,12.0,0.,12.0,0.,12.0,0.,12.0
1979-07-29 12:40:28.610 ,6,0,0.,12.0,0.,12.0,0.,12.0,0.,12.0
1979-07-29 12:40:40.610 ,6,0,0.,12.0,0.,12.0,0.,12.0,0.,12.0
1979-07-29 12:40:52.610 ,7,0,0.,12.0,0.,12.0,0.,12.0,0.,12.0
1979-07-29 12:41:04.610 ,7,0,0.,12.0,0.,12.0,0.,12.0,0.,12.0
1979-07-29 12:41:16.610 ,7,0,0.,12.0,0.,12.0,0.,12.0,0.,12.0
1979-07-29 12:41:28.610 ,7,0,0.,12.0,0.,12.0,0.,12.0,0.,12.0
1979-07-29 12:41:40.610 ,7,0,0.,12.0,0.,12.0,0.,12.0,0.,12.0
1979-07-29 12:41:52.610 ,7,0,0.,12.0,0.,12.0,0.,12.0,0.,12.0
1979-07-29 12:42:04.610 ,7,0,0.,12.0,0.,12.0,0.,12.0,0.,12.0
1979-07-29 12:42:16.610 ,7,0,0.,12.0,0.,12.0,0.,12.0,0.,12.0
1979-07-29 12:42:28.610 ,6,0,0.,12.0,0.,12.0,0.,12.0,0.,12.0
1979-07-29 12:42:40.610 ,6,0,0.,12.0,0.,12.0,0.,12.0,0.,12.0
1979-07-29 12:42:52.610 ,6,0,0.,12.0,0.,12.0,0.,12.0,0.,12.0
1979-07-29 12:43:04.610 ,6,0,0.,12.0,0.,12.0,0.,12.0,0.,12.0
1979-07-29 12:43:16.610 ,5,0,0.,12.0,0.,12.0,0.,12.0,0.,12.0
1979-07-29 12:43:28.610 ,5,0,0.,12.0,0.,12.0,0.,12.0,0.,12.0
1979-07-29 12:43:40.610 ,5,0,0.,12.0,0.,12.0,0.,12.0,0.,12.0
1979-07-29 12:43:52.610 ,5,0,0.,12.0,0.,12.0,0.,12.0,0.,12.0
1979-07-29 12:44:04.610 ,4,0,0.,12.0,0.,12.0,0.,12.0,0.,12.0
1979-07-29 12:44:16.610 ,4,0,0.,12.0,0.,12.0,0.,12.0,0.,12.0
1979-07-29 12:44:28.610 ,4,0,0.,12.0,0.,12.0,0.,12.0,0.,12.0
1979-07-29 12:44:40.610 ,4,0,0.,12.0,0.,12.0,0.,12.0,0.,12.0
1979-07-29 12:44:52.610 ,3,0,0.,12.0,0.,12.0,0.,12.0,0.,12.0
1979-07-29 12:45:04.610 ,3,0,0.,12.0,0.,12.0,0.,12.0,0.,12.0
1979-07-29 12:45:16.610 ,3,0,0.,12.0,0.,12.0,0.,12.0,0.,12.0
1979-07-29 12:45:28.610 ,3,0,0.,12.0,0.,12.0,0.,12.0,0.,12.0
1979-07-29 12:45:40.610 ,2,0,0.,12.0,0.,12.0,0.,12.0,0.,12.0
1979-07-29 12:45:52.610 ,2,0,0.,12.0,0.,12.0,0.,12.0,0.,12.0
1979-07-29 12:46:04.610 ,2,0,0.,12.0,0.,12.0,0.,12.0,0.,12.0
1979-07-29 12:46:16.610 ,2,0,0.,12.0,0.,12.0,0.,12.0,0.,12.0
1979-07-29 12:46:28.610 ,1,0,0.,12.0,0.,12.0,0.,12.0,0.,12.0
1979-07-29 12:46:40.610 ,1,0,0.,12.0,0.,12.0,0.,12.0,0.,12.0
1979-07-29 12:46:52.610 ,1,0,0.,12.0,0.,12.0,0.,12.0,0.,12.0
1979-07-29 12:47:04.610 ,1,0,0.,12.0,0.,12.0,0.,12.0,0.,12.0
1979-07-29 12:47:16.610 ,0,0,0.,12.0,0.,12.0,0.,12.0,0.,12.0
1979-07-29 12:47:28.610 ,0,0,0.,12.0,0.,12.0,0.,12.0,0.,12.0
1979-07-29 12:47:40.610 ,0,0,0.,12.0,0.,12.0,0.,12.0,0.,12.0
1979-07-29 12:47:52.610 ,0,0,0.,12.0,0.,12.0,0.,12.0,0.,12.0
1979-07-29 12:48:04.610 ,0,0,0.,12.0,0.,12.0,0.,12.0,0.,12.0
1979-07-29 12:48:16.610 ,0,0,0.,12.0,0.,12.0,0.,12.0,0.,12.0
1979-07-29 12:48:28.610 ,0,0,0.,12.0,0.,12.0,0.,12.0,0.,12.0
1979-07-29 12:48:40.610 ,0,0,0.,12.0,0.,12.0,0.,12.0,0.,12.0
1979-07-29 12:48:52.610 ,1,0,0.,12.0,0.,12.0,0.,12.0,0.,12.0
1979-07-29 12:49:04.610 ,1,0,0.,12.0,0.,12.0,0.,12.0,0.,12.0
1979-07-29 12:49:16.610 ,1,0,0.,12.0,0.,12.0,0.,12.0,0.,12.0
1979-07-29 12:49:28.610 ,1,0,0.,12.0,0.,12.0,0.,12.0,0.,12.0
1979-07-29 12:49:40.610 ,2,0,0.,12.0,0.,12.0,0.,12.0,0.,12.0
1979-07-29 12:49:52.610 ,2,0,0.,12.0,0.,12.0,0.,12.0,0.,12.0
1979-07-29 12:50:04.610 ,2,0,0.,12.0,0.,12.0,0.,12.0,0.,12.0
1979-07-29 12:50:16.610 ,2,0,0.,12.0,0.,12.0,0.,12.0,0.,12.0
1979-07-29 12:50:28.610 ,3,0,0.,12.0,0.,12.0,0.,12.0,0.,12.0
1979-07-29 12:50:40.610 ,3,0,0.,12.0,0.,12.0,0.,12.0,0.,12.0
1979-07-29 12:50:52.610 ,3,0,0.,12.0,0.,12.0,0.,12.0,0.,12.0
1979-07-29 12:51:04.610 ,3,0,0.,12.0,0.,12.0,0.,12.0,0.,12.0
1979-07-29 12:51:16.610 ,4,0,0.,12.0,0.,12.0,0.,12.0,0.,12.0
1979-07-29 12:51:28.610 ,4,0,0.,12.0,0.,12.0,0.,12.0,0.,12.0
1979-07-29 12:51:40.610 ,4,0,0.,12.0,0.,12.0,0.,12.0,0.,12.0
1979-07-29 12:51:52.610 ,4,0,0.,12.0,0.,12.0,0.,12.0,0.,12.0
1979-07-29 12:52:04.610 ,5,0,0.,12.0,0.,12.0,0.,12.0,0.,12.0
1979-07-29 12:52:16.610 ,5,0,0.,12.0,0.,12.0,0.,12.0,0.,12.0
1979-07-29 12:52:28.610 ,5,0,0.,12.0,0.,12.0,0.,12.0,0.,12.0
1979-07-29 12:52:40.610 ,5,0,0.,12.0,0.,12.0,0.,12.0,0.,12.0
1979-07-29 12:52:52.610 ,6,0,0.,12.0,0.,12.0,0.,12.0,0.,12.0
1979-07-29 12:53:04.610 ,6,0,0.,12.0,0.,12.0,0.,12.0,0.,12.0
1979-07-29 12:53:16.610 ,6,0,0.,12.0,0.,12.0,0.,12.0,0.,12.0
1979-07-29 12:53:28.610 ,6,0,0.,12.0,0.,12.0,0.,12.0,0.,12.0
1979-07-29 12:53:40.610 ,7,0,0.,12.0,0.,12.0,0.,12.0,0.,12.0
1979-07-29 12:53:52.610 ,7,0,0.,12.0,0.,12.0,0.,12.0,0.,12.0
1979-07-29 12:54:04.610 ,7,0,0.,12.0,0.,12.0,0.,12.0,0.,12.0
1979-07-29 12:54:16.610 ,7,0,0.,12.0,0.,12.0,0.,12.0,0.,12.0
1979-07-29 12:54:28.610 ,7,1,0.,12.0,0.,12.0,0.,12.0,0.,12.0
1979-07-29 12:54:40.610 ,7,1,,0,,0,,0,,0
1979-07-29 12:54:52.610 ,7,0,0.,12.0,0.,12.0,0.,12.0,0.,12.0
1979-07-29 12:55:04.610 ,7,0,0.,12.0,0.,12.0,0.,12.0,0.,12.0
1979-07-29 12:55:16.610 ,6,0,0.,12.0,0.,12.0,0.,12.0,0.,12.0
1979-07-29 12:55:28.610 ,6,0,0.,12.0,0.,12.0,0.,12.0,0.,12.0
1979-07-29 12:55:40.610 ,6,0,0.,12.0,0.,12.0,0.,12.0,0.,12.0
1979-07-29 12:55:52.610 ,6,0,0.,12.0,0.,12.0,0.,12.0,0.,12.0
1979-07-29 12:56:04.610 ,5,0,0.,12.0,0.,12.0,0.,12.0,0.,12.0
1979-07-29 12:56:16.610 ,5,0,0.,12.0,0.,12.0,0.,12.0,0.,12.0
1979-07-29 12:56:28.610 ,5,0,0.,12.0,0.,12.0,0.,12.0,0.,12.0
1979-07-29 12:56:40.610 ,5,0,0.,12.0,0.,12.0,0.,12.0,0.,12.0
1979-07-29 12:56:52.610 ,4,0,0.,12.0,0.,12.0,0.,12.0,0.,12.0
1979-07-29 12:57:04.610 ,4,0,0.,12.0,0.,12.0,0.,12.0,0.,12.0
1979-07-29 12:57:16.610 ,4,0,0.,12.0,0.,12.0,0.,12.0,0.,12.0
1979-07-29 12:57:28.610 ,4,0,0.,12.0,0.,12.0,0.,12.0,0.,12.0
1979-07-29 12:57:40.610 ,3,0,0.,12.0,0.,12.0,0.,12.0,0.,12.0
1979-07-29 12:57:52.610 ,3,0,0.,12.0,0.,12.0,0.,12.0,0.,12.0
1979-07-29 12:58:04.610 ,3,0,0.,12.0,0.,12.0,0.,12.0,0.,12.0
1979-07-29 12:58:16.610 ,3,0,0.,12.0,0.,12.0,0.,12.0,0.,12.0
1979-07-29 12:58:28.610 ,2,0,0.,12.0,0.,12.0,0.,12.0,0.,12.0
1979-07-29 12:58:40.610 ,2,0,0.,12.0,0.,12.0,0.,12.0,0.,12.0
1979-07-29 12:58:52.610 ,2,0,0.,12.0,0.,12.0,0.,12.0,0.,12.0
1979-07-29 12:59:04.610 ,2,0,0.,12.0,0.,12.0,0.,12.0,0.,12.0
1979-07-29 12:59:16.610 ,1,0,0.,12.0,0.,12.0,0.,12.0,0.,12.0
1979-07-29 12:59:28.610 ,1,0,0.,12.0,0.,12.0,0.,12.0,0.,12.0
1979-07-29 12:59:40.610 ,1,0,0.,12.0,0.,12.0,0.,12.0,0.,12.0
1979-07-29 12:59:52.610 ,1,0,0.,12.0,0.,12.0,0.,12.0,0.,12.0
1979-07-29 13:00:04.610 ,0,0,0.,12.0,0.,12.0,0.,12.0,0.,12.0
1979-07-29 13:00:16.610 ,0,0,0.,12.0,0.,12.0,0.,12.0,0.,12.0
1979-07-29 13:00:28.610 ,0,0,0.,12.0,0.,12.0,0.,12.0,0.,12.0
1979-07-29 13:00:40.610 ,0,0,0.,12.0,0.,12.0,0.,12.0,0.,12.0
1979-07-29 13:00:52.610 ,0,0,0.,12.0,0.,12.0,0.,12.0,0.,12.0
1979-07-29 13:01:04.610 ,0,0,0.,12.0,0.,12.0,0.,12.0,0.,12.0
1979-07-29 13:01:16.610 ,0,0,0.,12.0,0.,12.0,0.,12.0,0.,12.0
1979-07-29 13:01:28.610 ,0,0,0.,12.0,0.,12.0,0.,12.0,0.,12.0
1979-07-29 13:01:40.610 ,1,0,0.,12.0,0.,12.0,0.,12.0,0.,12.0
1979-07-29 13:01:52.610 ,1,0,0.,12.0,0.,12.0,0.,12.0,0.,12.0
1979-07-29 13:02:04.610 ,1,0,0.,12.0,0.,12.0,0.,12.0,0.,12.0
1979-07-29 13:02:16.610 ,1,0,0.,12.0,0.,12.0,0.,12.0,0.,12.0
1979-07-29 13:02:28.610 ,2,0,0.,12.0,0.,12.0,0.,12.0,0.,12.0
1979-07-29 13:02:40.610 ,2,0,0.,12.0,0.,12.0,0.,12.0,0.,12.0
1979-07-29 13:02:52.610 ,2,0,0.,12.0,0.,12.0,0.,12.0,0.,12.0
1979-07-29 13:03:04.610 ,2,0,0.,12.0,0.,12.0,0.,12.0,0.,12.0
1979-07-29 13:03:16.610 ,3,0,0.,12.0,0.,12.0,0.,12.0,0.,12.0
1979-07-29 13:03:28.610 ,3,0,0.,12.0,0.,12.0,0.,12.0,0.,12.0
1979-07-29 13:03:40.610 ,3,0,0.,12.0,0.,12.0,0.,12.0,0.,12.0
1979-07-29 13:03:52.610 ,3,0,0.,12.0,0.,12.0,0.,12.0,0.,12.0
1979-07-29 13:04:04.610 ,4,0,0.,12.0,0.,12.0,0.,12.0,0.,12.0
1979-07-29 13:04:16.610 ,4,0,0.,12.0,0.,12.0,0.,12.0,0.,12.0
1979-07-29 13:04:28.610 ,4,0,0.,12.0,0.,12.0,0.,12.0,0.,12.0
1979-07-29 13:04:40.610 ,4,0,0.,12.0,0.,12.0,0.,12.0,0.,12.0
1979-07-29 13:04:52.610 ,5,0,0.,12.0,0.,12.0,0.,12.0,0.,12.0
1979-07-29 13:05:04.610 ,5,0,0.,12.0,0.,12.0,0.,12.0,0.,12.0
1979-07-29 13:05:16.610 ,5,0,0.,12.0,0.,12.0,0.,12.0,0.,12.0
1979-07-29 13:05:28.610 ,5,0,0.,12.0,0.,12.0,0.,12.0,0.,12.0
1979-07-29 13:05:40.610 ,6,0,0.,12.0,0.,12.0,0.,12.0,0.,12.0
1979-07-29 13:05:52.610 ,6,0,0.,12.0,0.,12.0,0.,12.0,0.,12.0
1979-07-29 13:06:04.610 ,6,0,0.,12.0,0.,12.0,0.,12.0,0.,12.0
1979-07-29 13:06:16.610 ,6,0,0.,12.0,0.,12.0,0.,12.0,0.,12.0
1979-07-29 13:06:28.610 ,7,0,0.,12.0,0.,12.0,0.,12.0,0.,12.0
1979-07-29 13:06:40.610 ,7,0,0.,12.0,0.,12.0,0.,12.0,0.,12.0
1979-07-29 13:06:52.610 ,7,0,0.,12.0,0.,12.0,0.,12.0,0.,12.0
1979-07-29 13:07:04.610 ,7,0,0.,12.0,0.,12.0,0.,12.0,0.,12.0
1979-07-29 13:07:16.610 ,3,1,0.,12.0,0.,12.0,0.,12.0,0.,12.0
1979-07-29 13:07:28.610 ,3,1,0.,12.0,0.,12.0,0.,12.0,0.,12.0
1979-07-29 13:07:40.610 ,0,1,0.,12.0,0.,12.0,0.,12.0,0.,12.0
1979-07-29 13:07:52.610 ,0,1,0.,12.0,0.,12.0,0.,12.0,0.,12.0
1979-07-29 13:08:04.610 ,4,1,0.,12.0,0.,12.0,0.,12.0,0.,12.0
1979-07-29 13:08:16.610 ,4,1,0.,12.0,0.,12.0,0.,12.0,0.,12.0
1979-07-29 13:08:28.610 ,7,1,0.,12.0,0.,12.0,0.,12.0,0.,12.0
1979-07-29 13:08:40.610 ,7,1,0.,12.0,0.,12.0,0.,12.0,0.,12.0
1979-07-29 13:08:52.610 ,3,1,0.,12.0,0.,12.0,0.,12.0,0.,12.0
1979-07-29 13:09:04.610 ,3,1,0.,12.0,0.,12.0,0.,12.0,0.,12.0
1979-07-29 13:09:16.610 ,0,1,0.,12.0,0.,12.0,0.,12.0,0.,12.0
1979-07-29 13:09:28.610 ,0,1,0.,12.0,0.,12.0,0.,12.0,0.,12.0
1979-07-29 13:09:40.610 ,4,1,0.,12.0,0.,12.0,0.,12.0,0.,12.0
1979-07-29 13:09:52.610 ,4,1,0.,12.0,0.,12.0,0.,12.0,0.,12.0
1979-07-29 13:10:04.610 ,7,1,0.,12.0,0.,12.0,0.,12.0,0.,12.0
1979-07-29 13:10:16.610 ,7,1,0.,12.0,0.,12.0,0.,12.0,0.,12.0
1979-07-29 13:10:28.610 ,3,1,0.,12.0,0.,12.0,0.,12.0,0.,12.0
1979-07-29 13:10:40.610 ,3,1,0.,12.0,0.,12.0,0.,12.0,0.,12.0
1979-07-29 13:10:52.610 ,0,1,0.,12.0,0.,12.0,0.,12.0,0.,12.0
1979-07-29 13:11:04.610 ,0,1,0.,12.0,0.,12.0,0.,12.0,0.,12.0
1979-07-29 13:11:16.610 ,4,1,0.,12.0,0.,12.0,0.,12.0,0.,12.0
1979-07-29 13:11:28.610 ,4,1,0.,12.0,0.,12.0,0.,12.0,0.,12.0
1979-07-29 13:11:40.610 ,7,1,0.,12.0,0.,12.0,0.,12.0,0.,12.0
1979-07-29 13:11:52.610 ,7,1,0.,12.0,0.,12.0,0.,12.0,0.,12.0
1979-07-29 13:12:04.610 ,3,1,0.,12.0,0.,12.0,0.,12.0,0.,12.0
1979-07-29 13:12:16.610 ,3,1,0.,12.0,0.,12.0,0.,12.0,0.,12.0
1979-07-29 13:12:28.610 ,0,1,0.,12.0,0.,12.0,0.,12.0,0.,12.0
1979-07-29 13:12:40.610 ,0,1,0.,12.0,0.,12.0,0.,12.0,0.,12.0
1979-07-29 13:12:52.610 ,4,1,0.,12.0,0.,12.0,0.,12.0,0.,12.0
1979-07-29 13:13:04.610 ,4,1,0.,12.0,0.,12.0,0.,12.0,0.,12.0
1979-07-29 13:13:16.610 ,7,1,0.,12.0,0.,12.0,0.,12.0,0.,12.0
1979-07-29 13:13:28.610 ,7,1,0.,12.0,0.,12.0,0.,12.0,0.,12.0
1979-07-29 13:13:40.610 ,3,1,0.,12.0,0.,12.0,0.,12.0,0.,12.0
1979-07-29 13:13:52.610 ,3,1,0.,12.0,0.,12.0,0.,12.0,0.,12.0
1979-07-29 13:14:04.610 ,0,1,0.,12.0,0.,12.0,0.,12.0,0.,12.0
1979-07-29 13:14:16.610 ,0,1,0.,12.0,0.,12.0,0.,12.0,0.,12.0
1979-07-29 13:14:28.610 ,4,1,0.,12.0,0.,12.0,0.,12.0,0.,12.0
1979-07-29 13:14:40.610 ,4,1,0.,12.0,0.,12.0,0.,12.0,0.,12.0
1979-07-29 13:14:52.610 ,7,1,0.,12.0,0.,12.0,0.,12.0,0.,12.0
1979-07-29 13:15:04.610 ,7,1,0.,12.0,0.,12.0,0.,12.0,0.,12.0
1979-07-29 13:15:16.610 ,3,1,0.,12.0,0.,12.0,0.,12.0,0.,12.0
1979-07-29 13:15:28.610 ,3,1,0.,12.0,0.,12.0,0.,12.0,0.,12.0
1979-07-29 13:15:40.610 ,0,1,0.,12.0,0.,12.0,0.,12.0,0.,12.0
1979-07-29 13:15:52.610 ,0,1,0.,12.0,0.,12.0,0.,12.0,0.,12.0
1979-07-29 13:16:04.610 ,4,1,0.,12.0,0.,12.0,0.,12.0,0.,12.0
1979-07-29 13:16:16.610 ,4,1,0.,12.0,0.,12.0,0.,12.0,0.,12.0
1979-07-29 13:16:28.610 ,7,1,0.,12.0,0.,12.0,0.,12.0,0.,12.0
1979-07-29 13:16:40.610 ,7,1,0.,12.0,0.,12.0,0.,12.0,0.,12.0
1979-07-29 13:16:52.610 ,3,1,0.,12.0,0.,12.0,0.,12.0,0.,12.0
1979-07-29 13:17:04.610 ,3,1,0.,12.0,0.,12.0,0.,12.0,0.,12.0
1979-07-29 13:17:16.610 ,0,1,0.,12.0,0.,12.0,0.,12.0,0.,12.0
1979-07-29 13:17:28.610 ,0,1,0.,12.0,0.,12.0,0.,12.0,0.,12.0
1979-07-29 13:17:40.610 ,0,0,0.,12.0,0.,12.0,0.,12.0,0.,12.0
1979-07-29 13:17:52.610 ,0,0,0.,12.0,0.,12.0,0.,12.0,0.,12.0
1979-07-29 13:18:04.610 ,0,0,0.,12.0,0.,12.0,0.,12.0,0.,12.0
1979-07-29 13:18:16.610 ,0,0,0.,12.0,0.,12.0,0.,12.0,0.,12.0